1496995200.91,9623,18.56,74186.0,23.45,-19.27,-21.63,0,*78
1496995202.11,9624,18.56,74188.5,23.47,-18.11,-20.29,0,*76
1496995203.33,9625,18.63,74188.8,23.47,-18.31,-20.69,0,*71
1496995204.53,9626,18.63,74188.3,23.47,-20.73,-23.09,0,*7A
1496995205.78,9627,18.56,74184.5,23.45,-18.93,-21.17,0,*71
1496995207.0,9628,18.56,74186.3,23.47,-17.21,-19.47,0,*74
1496995208.2,9629,18.56,74184.0,23.47,-17.83,-19.95,0,*72
1496995209.43,9630,18.56,74186.3,23.47,-18.83,-21.23,0,*73
1496995210.63,9631,18.63,74190.5,23.49,-17.49,-19.75,0,*7D
1496995211.87,9632,18.56,74186.8,23.51,-16.69,-18.69,0,*78
1496995213.14,9633,18.56,74190.0,23.51,-16.31,-18.35,0,*7D
1496995214.38,9634,18.56,74184.5,23.53,-16.09,-18.11,0,*75
1496995215.63,9635,18.56,74186.8,23.55,-16.13,-18.07,0,*7E
1496995216.87,9636,18.63,74190.8,23.55,-16.45,-18.55,0,*79
1496995218.07,9637,18.56,74186.3,23.61,-16.75,-18.69,0,*73
1496995219.26,9638,18.56,74184.5,23.61,-16.55,-18.83,0,*7A
1496995220.49,9639,18.56,74184.0,23.61,-17.93,-20.09,0,*79
1496995221.76,9640,18.56,74186.3,23.63,-17.97,-20.19,0,*70
1496995222.98,9641,18.56,74184.8,23.63,-19.07,-21.39,0,*75
1496995224.18,9642,18.63,74190.0,23.65,-18.83,-21.09,0,*7E
1496995225.45,9643,18.56,74184.3,23.63,-18.31,-20.35,0,*7E
1496995226.7,9644,18.56,74186.5,23.63,-17.45,-19.51,0,*7D
1496995227.94,9645,18.63,74188.8,23.63,-16.69,-18.79,0,*78
1496995229.15,9646,18.56,74186.3,23.65,-16.75,-18.89,0,*7F
1496995230.36,9647,18.56,74186.8,23.65,-18.11,-20.15,0,*7C
1496995231.61,9648,18.63,74190.0,23.67,-17.11,-19.17,0,*76
1496995232.85,9649,18.56,74184.8,23.67,-17.93,-20.09,0,*78
1496995234.08,9650,18.63,74188.5,23.69,-16.41,-18.35,0,*74
1496995235.3,9651,18.56,74184.3,23.69,-15.99,-17.97,0,*74
1496995236.49,9652,18.56,74186.5,23.73,-16.59,-18.79,0,*7C
1496995237.7,9653,18.56,74184.0,23.73,-18.25,-20.39,0,*77
1496995238.91,9654,18.63,74188.5,23.73,-16.31,-18.73,0,*7E
1496995240.16,9655,18.63,74190.0,23.71,-16.51,-18.65,0,*7C
1496995241.4,9656,18.63,74184.3,23.75,-16.65,-18.69,0,*70
1496995242.65,9657,18.56,74182.8,23.79,-16.23,-18.21,0,*73
1496995243.83,9658,18.56,74184.8,23.77,-16.93,-19.03,0,*78
1496995245.05,9659,18.56,74186.8,23.83,-16.03,-18.01,0,*78
1496995246.25,9660,18.56,74184.8,23.83,-16.45,-18.41,0,*74
1496995247.49,9661,18.56,74186.0,23.83,-16.65,-18.89,0,*73
1496995248.72,9662,18.56,74184.0,23.85,-17.49,-19.71,0,*7F
1496995249.94,9663,18.56,74188.0,23.87,-17.63,-20.09,0,*71
1496995251.13,9664,18.56,74184.0,23.87,-16.93,-19.07,0,*7C
1496995252.35,9665,18.56,74188.0,23.87,-17.69,-19.81,0,*77
1496995253.59,9666,18.63,74190.0,23.87,-17.63,-19.81,0,*7E
1496995254.84,9667,18.63,74188.3,23.87,-17.21,-19.41,0,*75
1496995256.09,9668,18.56,74190.0,23.87,-18.59,-20.83,0,*7E
1496995257.36,9669,18.63,74188.0,23.85,-17.07,-18.89,0,*78
1496995258.6,9670,18.56,74190.8,23.85,-16.93,-19.23,0,*7D
1496995259.84,9671,18.56,74184.3,23.87,-17.35,-19.57,0,*70
1496995261.09,9672,18.56,74184.5,23.89,-16.69,-18.79,0,*78
1496995262.31,9673,18.56,74188.0,23.89,-16.59,-18.79,0,*7A
1496995263.5,9674,18.63,74188.5,23.91,-16.59,-18.79,0,*74
1496995264.73,9675,18.63,74188.8,23.93,-17.73,-20.09,0,*72
1496995266.0,9676,18.63,74190.0,23.93,-19.85,-21.67,0,*7F
1496995267.23,9677,18.63,74188.8,23.89,-17.87,-19.91,0,*7B
1496995268.43,9678,18.63,74190.8,23.91,-17.73,-19.91,0,*76
1496995269.71,9679,18.63,74188.3,23.89,-20.79,-23.19,0,*79
1496995270.93,9680,18.56,74186.3,23.89,-18.65,-20.69,0,*7D
1496995272.18,9681,18.63,74190.0,23.89,-17.63,-19.71,0,*76
1496995273.45,9682,18.56,74188.0,23.89,-16.51,-18.55,0,*72
1496995274.71,9683,18.56,74188.3,23.89,-19.57,-21.77,0,*70
1496995275.97,9684,18.56,74184.0,23.89,-19.99,-22.47,0,*75
1496995277.2,9685,18.56,74184.8,23.87,-19.31,-21.43,0,*7F
1496995278.45,9686,18.63,74186.5,23.85,-19.23,-21.47,0,*79
1496995279.72,9687,18.56,74184.0,23.85,-17.97,-20.15,0,*7F
1496995280.94,9688,18.56,74186.0,23.89,-16.97,-18.99,0,*72
1496995282.17,9689,18.63,74190.5,23.87,-18.11,-20.53,0,*70
1496995283.39,9690,18.56,74186.8,23.87,-17.69,-19.81,0,*7D
1496995284.65,9691,18.63,74190.3,23.89,-17.17,-19.13,0,*70
1496995285.88,9692,18.56,74190.5,23.87,-17.45,-19.47,0,*7B
1496995287.12,9693,18.56,74186.3,23.89,-17.11,-19.07,0,*71
1496995288.36,9694,18.56,74186.0,23.89,-17.03,-19.07,0,*75
1496995289.57,9695,18.56,74184.3,23.91,-16.55,-18.49,0,*74
1496995290.79,9696,18.56,74186.0,23.91,-16.55,-18.55,0,*7A
1496995292.02,9697,18.56,74186.0,23.93,-18.45,-20.09,0,*74
1496995293.26,9698,18.63,74188.3,23.93,-19.65,-21.73,0,*74
1496995294.49,9699,18.63,74190.5,23.91,-18.45,-20.49,0,*7C
1496995295.75,9700,18.63,74188.0,23.89,-18.65,-20.83,0,*70
1496995297.03,9701,18.56,74186.5,23.93,-19.31,-21.33,0,*70
1496995298.23,9702,18.63,74188.0,23.87,-18.07,-19.95,0,*75
1496995299.43,9703,18.56,74184.8,23.91,-17.73,-19.75,0,*71
1496995300.66,9704,18.56,74186.5,23.91,-17.41,-19.51,0,*71
1496995301.91,9705,18.56,74186.0,23.89,-17.55,-19.51,0,*7C
1496995303.14,9706,18.56,74186.0,23.89,-17.87,-19.91,0,*7C
1496995304.34,9707,18.63,74190.5,23.91,-18.07,-20.29,0,*7A
1496995305.59,9708,18.56,74186.5,23.93,-17.25,-19.37,0,*7D
1496995306.8,9709,18.56,74184.3,23.93,-20.29,-22.67,0,*79
1496995308.09,9710,18.56,74188.8,23.89,-18.31,-20.19,0,*73
1496995309.28,9711,18.56,74188.3,23.91,-16.83,-18.83,0,*74
1496995310.5,9712,18.56,74184.5,23.91,-17.03,-19.07,0,*73
1496995311.72,9713,18.63,74190.0,23.93,-16.83,-19.03,0,*7D
1496995312.99,9714,18.63,74190.0,23.93,-18.31,-20.15,0,*70
1496995314.19,9715,18.56,74188.0,23.91,-17.87,-19.91,0,*77
1496995315.42,9716,18.56,74184.8,23.91,-18.01,-20.05,0,*72
1496995316.67,9717,18.56,74184.8,23.93,-17.83,-19.85,0,*76
1496995317.92,9718,18.56,74186.5,23.93,-19.71,-21.83,0,*77
1496995319.17,9719,18.63,74188.3,23.89,-21.13,-23.53,0,*7D
1496995320.36,9720,18.56,74186.8,23.87,-20.05,-22.07,0,*7F
1496995321.63,9721,18.56,74184.0,23.85,-20.15,-22.17,0,*7C
1496995322.91,9722,18.63,74186.5,23.85,-19.61,-21.57,0,*71
1496995324.11,9723,18.56,74184.3,23.83,-19.03,-20.93,0,*7B
1496995325.37,9724,18.56,74184.5,23.79,-19.41,-21.57,0,*76
1496995326.61,9725,18.56,74186.8,23.79,-20.15,-22.03,0,*7E
1496995327.81,9726,18.56,74184.3,23.77,-18.69,-20.69,0,*7D
1496995329.01,9727,18.56,74186.0,23.77,-18.11,-19.95,0,*7A
1496995330.23,9728,18.56,74184.0,23.77,-18.11,-20.19,0,*7B
1496995331.43,9729,18.63,74188.0,23.77,-21.77,-24.31,0,*7E
1496995332.68,9730,18.63,74186.8,23.73,-22.77,-24.71,0,*75
1496995333.93,9731,18.56,74186.5,23.71,-21.27,-23.43,0,*76
1496995335.14,9732,18.56,74186.0,23.69,-19.95,-21.93,0,*71
1496995336.36,9733,18.56,74184.8,23.67,-19.37,-21.17,0,*7A
1496995337.63,9734,18.63,74190.0,23.67,-18.89,-20.83,0,*75
1496995338.89,9735,18.56,74184.8,23.67,-19.81,-21.83,0,*7C
1496995340.13,9736,18.56,74184.8,23.67,-23.23,-25.35,0,*77
1496995341.4,9737,18.63,74188.5,23.63,-22.17,-23.69,0,*7B
1496995342.59,9738,18.63,74188.0,23.57,-20.09,-22.11,0,*70
1496995343.8,9739,18.56,74186.3,23.57,-21.47,-23.69,0,*74
1496995345.07,9740,18.63,74190.3,23.55,-21.67,-23.53,0,*73
1496995346.32,9741,18.63,74190.3,23.53,-19.85,-21.67,0,*76
1496995347.54,9742,18.63,74188.3,23.51,-20.69,-22.67,0,*7C
1496995348.76,9743,18.56,74186.5,23.49,-25.29,-27.77,0,*71
1496995350.03,9744,18.63,74192.0,23.45,-24.11,-26.17,0,*77
1496995351.27,9745,18.63,74188.8,23.41,-24.97,-27.23,0,*7A
1496995352.53,9746,18.63,74186.5,23.37,-26.33,-28.69,0,*75
1496995353.76,9747,18.56,74188.8,23.27,-27.61,-29.95,0,*71
1496995355.02,9748,18.56,74186.5,23.19,-26.97,-29.51,0,*73
1496995356.29,9749,18.56,74188.0,23.15,-28.09,-30.51,0,*7F
1496995357.54,9750,18.63,74190.8,23.05,-28.05,-30.51,0,*7A
1496995358.76,9751,18.63,74192.3,23.01,-28.97,-31.39,0,*7B
1496995360.01,9752,18.63,74190.0,22.93,-28.63,-31.39,0,*79
1496995361.24,9753,18.56,74188.0,22.83,-29.83,-32.63,0,*7A
1496995362.46,9754,18.63,74190.5,22.79,-27.39,-29.83,0,*73
1496995363.69,9755,18.63,74190.5,22.73,-28.37,-31.01,0,*7A
1496995364.94,9756,18.63,74186.8,22.65,-29.95,-32.29,0,*7E
1496995366.16,9757,18.63,74186.3,22.59,-29.07,-31.51,0,*77
1496995367.39,9758,18.56,74184.0,22.53,-29.07,-31.67,0,*77
1496995368.61,9759,18.56,74186.3,22.43,-29.17,-31.79,0,*79
1496995369.83,9760,18.56,74184.8,22.39,-27.13,-29.39,0,*79
1496995371.05,9761,18.63,74188.3,22.35,-24.21,-26.49,0,*7E
1496995372.3,9762,18.63,74188.0,22.33,-25.49,-27.83,0,*73
1496995373.5,9763,18.63,74190.5,22.31,-25.19,-27.29,0,*75
1496995374.77,9764,18.56,74186.3,22.29,-22.77,-24.71,0,*7A
1496995375.99,9765,18.56,74186.8,22.27,-22.03,-24.11,0,*70
1496995377.23,9766,18.63,74186.5,22.29,-21.13,-23.19,0,*70
1496995378.48,9767,18.63,74190.3,22.31,-20.83,-22.77,0,*79
1496995379.7,9768,18.63,74188.0,22.31,-20.83,-22.87,0,*79
1496995380.92,9769,18.63,74188.5,22.31,-21.93,-23.99,0,*76
1496995382.17,9770,18.56,74184.3,22.31,-22.17,-24.11,0,*76
1496995383.41,9771,18.63,74186.3,22.31,-21.83,-23.53,0,*78
1496995384.68,9772,18.63,74188.0,22.29,-21.27,-23.33,0,*7A
1496995385.9,9773,18.63,74188.0,22.27,-21.93,-23.99,0,*7A
1496995387.12,9774,18.63,74188.8,22.29,-20.89,-23.13,0,*7B
1496995388.39,9775,18.63,74186.8,22.29,-22.17,-24.25,0,*7D
1496995389.6,9776,18.63,74188.0,22.27,-23.13,-25.13,0,*71
1496995390.82,9777,18.63,74188.5,22.27,-23.69,-26.07,0,*7B
1496995392.07,9778,18.63,74188.5,22.25,-24.21,-26.45,0,*7B
1496995393.3,9779,18.63,74190.8,22.17,-24.25,-26.45,0,*7F
1496995394.55,9780,18.63,74190.3,22.15,-24.77,-26.97,0,*73
1496995395.77,9781,18.63,74188.3,22.13,-25.55,-27.67,0,*7B
1496995396.99,9782,18.63,74192.8,22.09,-26.55,-28.97,0,*70
1496995398.21,9783,18.63,74188.5,22.05,-26.65,-29.13,0,*73
1496995399.46,9784,18.63,74190.5,21.97,-27.61,-30.39,0,*79
1496995400.66,9785,18.63,74190.5,21.93,-28.37,-31.05,0,*7E
1496995401.86,9786,18.63,74190.8,21.87,-25.13,-27.29,0,*7A
1496995403.06,9787,18.63,74190.5,21.83,-27.71,-30.27,0,*71
1496995404.32,9788,18.63,74190.0,21.81,-29.57,-32.19,0,*79
1496995405.59,9789,18.63,74190.3,21.73,-26.17,-28.59,0,*71
1496995406.85,9790,18.63,74190.0,21.69,-26.03,-28.43,0,*7C
1496995408.13,9791,18.63,74188.0,21.65,-29.35,-32.07,0,*70
1496995409.38,9792,18.63,74190.3,21.61,-26.77,-29.23,0,*72
1496995410.63,9793,18.63,74190.3,21.57,-26.61,-29.01,0,*71
1496995411.92,9794,18.63,74188.0,21.51,-25.71,-28.21,0,*71
1496995413.11,9795,18.63,74186.5,21.49,-27.13,-29.79,0,*73
1496995414.39,9796,18.63,74190.3,21.47,-26.77,-29.29,0,*78
1496995415.6,9797,18.63,74188.8,21.41,-26.65,-29.07,0,*70
1496995416.87,9798,18.63,74190.8,21.39,-26.71,-29.17,0,*74
1496995418.13,9799,18.63,74188.5,21.35,-26.03,-28.47,0,*78
1496995419.38,9800,18.63,74190.8,21.35,-24.97,-27.35,0,*72
1496995420.58,9801,18.63,74190.3,21.29,-25.39,-27.93,0,*77
1496995421.84,9802,18.63,74190.3,21.29,-25.55,-27.99,0,*74
1496995423.06,9803,18.63,74192.3,21.25,-27.19,-29.83,0,*76
1496995424.3,9804,18.63,74188.3,21.19,-31.01,-33.89,0,*71
1496995425.54,9805,18.63,74190.3,21.13,-32.07,-34.95,0,*75
1496995426.76,9806,18.63,74192.3,21.03,-32.39,-35.29,0,*7C
1496995427.98,9807,18.63,74188.0,20.97,-30.05,-32.69,0,*7F
1496995429.22,9808,18.63,74190.3,20.91,-30.39,-33.43,0,*70
1496995430.42,9809,18.63,74190.5,20.83,-30.67,-33.67,0,*7F
1496995431.65,9810,18.63,74192.0,20.77,-32.69,-35.47,0,*74
1496995432.9,9811,18.63,74188.3,20.71,-31.91,-35.53,0,*72
1496995434.12,9812,18.63,74192.0,20.63,-33.27,-36.43,0,*7F
1496995435.36,9813,18.63,74190.3,20.55,-33.27,-36.19,0,*74
1496995436.61,9814,18.63,74188.8,20.51,-31.61,-34.77,0,*7D
1496995437.89,9815,18.56,74186.0,20.43,-29.51,-32.29,0,*78
1496995439.17,9816,18.63,74188.3,20.39,-31.57,-34.65,0,*77
1496995440.39,9817,18.63,74190.8,20.33,-32.57,-35.53,0,*7B
1496995441.64,9818,18.63,74188.8,20.25,-29.29,-32.01,0,*70
1496995442.83,9819,18.63,74190.0,20.23,-31.67,-34.77,0,*73
1496995444.03,9820,18.56,74188.5,20.15,-29.83,-32.57,0,*7B
1496995445.25,9821,18.63,74194.3,20.11,-30.55,-33.37,0,*7A
1496995446.48,9822,18.63,74192.0,20.07,-30.83,-33.43,0,*76
1496995447.71,9823,18.63,74190.5,20.07,-29.23,-32.19,0,*7B
1496995448.93,9824,18.63,74190.3,19.99,-31.45,-34.35,0,*70
1496995450.18,9825,18.63,74190.5,19.93,-33.31,-36.31,0,*7C
1496995451.4,9826,18.63,74188.8,19.85,-32.23,-35.29,0,*70
1496995452.68,9827,18.63,74192.5,19.81,-32.29,-35.41,0,*71
1496995453.89,9828,18.63,74194.3,19.71,-32.23,-35.23,0,*7F
1496995455.14,9829,18.63,74190.8,19.69,-31.73,-34.71,0,*77
1496995456.36,9830,18.63,74192.8,19.63,-30.45,-33.21,0,*73
1496995457.6,9831,18.63,74192.8,19.63,-28.21,-31.05,0,*7D
1496995458.84,9832,18.63,74190.0,19.59,-28.15,-30.95,0,*78
1496995460.04,9833,18.63,74194.3,19.57,-28.31,-31.17,0,*7A
1496995461.29,9834,18.63,74190.8,19.55,-30.95,-33.67,0,*7D
1496995462.51,9835,18.63,74190.8,19.47,-31.29,-34.13,0,*7D
1496995463.74,9836,18.63,74194.0,19.41,-29.35,-32.23,0,*79
1496995465.0,9837,18.63,74194.3,19.41,-27.45,-30.01,0,*73
1496995466.25,9838,18.63,74194.8,19.41,-29.29,-32.07,0,*7C
1496995467.47,9839,18.63,74190.8,19.37,-28.47,-31.05,0,*74
1496995468.68,9840,18.63,74192.0,19.33,-27.71,-30.33,0,*70
1496995469.94,9841,18.63,74192.5,19.33,-28.25,-30.89,0,*7E
1496995471.18,9842,18.63,74188.0,19.33,-28.25,-30.83,0,*77
1496995472.42,9843,18.63,74192.8,19.27,-27.83,-30.39,0,*71
1496995473.66,9844,18.63,74190.3,19.25,-27.83,-30.45,0,*7F
1496995474.85,9845,18.63,74190.0,19.23,-27.29,-29.79,0,*7F
1496995476.1,9846,18.56,74188.8,19.21,-26.93,-29.45,0,*71
1496995477.34,9847,18.63,74190.0,19.21,-29.45,-32.29,0,*74
1496995478.57,9848,18.63,74188.5,19.15,-30.67,-33.43,0,*79
1496995479.81,9849,18.63,74192.0,19.13,-30.83,-33.73,0,*77
1496995481.03,9850,18.63,74188.3,19.07,-31.01,-33.77,0,*75
1496995482.28,9851,18.63,74190.3,19.01,-29.61,-32.29,0,*77
1496995483.56,9852,18.63,74192.0,18.99,-28.59,-30.89,0,*76
1496995484.81,9853,18.63,74188.3,18.95,-28.47,-31.29,0,*7F
1496995486.02,9854,18.63,74192.0,18.93,-31.01,-33.73,0,*79
1496995487.27,9855,18.63,74192.0,18.89,-30.61,-33.09,0,*79
1496995488.49,9856,18.56,74186.5,18.81,-28.47,-31.05,0,*71
1496995489.74,9857,18.63,74192.3,18.81,-27.99,-30.51,0,*7C
1496995491.03,9858,18.63,74194.5,18.79,-29.35,-31.95,0,*75
1496995492.28,9859,18.56,74188.8,18.75,-31.33,-33.73,0,*7D
1496995493.5,9860,18.63,74192.5,18.69,-30.45,-32.85,0,*72
1496995494.73,9861,18.63,74190.8,18.69,-27.67,-29.35,0,*74
1496995495.92,9862,18.63,74192.0,18.67,-27.03,-29.23,0,*7C
1496995497.18,9863,18.63,74192.5,18.63,-28.25,-30.77,0,*7B
1496995498.4,9864,18.63,74192.3,18.57,-28.97,-31.67,0,*72
1496995499.64,9865,18.63,74192.8,18.53,-30.45,-33.09,0,*7B
1496995500.87,9866,18.63,74190.5,18.49,-30.55,-33.03,0,*78
1496995502.11,9867,18.63,74192.3,18.47,-29.17,-31.57,0,*7A
1496995503.33,9868,18.63,74188.3,18.43,-29.79,-32.29,0,*73
1496995504.59,9869,18.56,74190.8,18.41,-28.25,-30.67,0,*70
1496995505.86,9870,18.56,74190.5,18.41,-25.03,-27.19,0,*7E
1496995507.11,9871,18.63,74190.5,18.37,-23.99,-26.23,0,*73
1496995508.37,9872,18.63,74192.5,18.41,-23.75,-25.71,0,*77
1496995509.57,9873,18.63,74190.0,18.43,-24.31,-26.61,0,*71
1496995510.82,9874,18.63,74192.8,18.43,-25.29,-27.61,0,*7F
1496995512.07,9875,18.56,74188.8,18.43,-26.33,-28.63,0,*7B
1496995513.33,9876,18.63,74190.0,18.41,-27.89,-30.17,0,*70
1496995514.54,9877,18.63,74192.3,18.35,-26.87,-29.23,0,*72
1496995515.79,9878,18.63,74190.8,18.35,-26.33,-28.37,0,*76
1496995517.04,9879,18.63,74192.5,18.33,-25.71,-28.09,0,*79
1496995518.25,9880,18.63,74194.3,18.33,-25.45,-27.77,0,*7E
1496995519.51,9881,18.63,74192.3,18.31,-26.03,-28.21,0,*70
1496995520.73,9882,18.63,74192.5,18.33,-24.25,-26.49,0,*77
1496995521.96,9883,18.63,74190.5,18.31,-24.77,-27.07,0,*78
1496995523.18,9884,18.63,74188.0,18.33,-26.39,-28.59,0,*71
1496995524.43,9885,18.63,74192.0,18.31,-26.33,-28.69,0,*7B
1496995525.7,9886,18.56,74190.5,18.27,-26.29,-28.75,0,*79
1496995526.93,9887,18.63,74188.8,18.25,-26.65,-29.01,0,*70
1496995528.15,9888,18.63,74188.8,18.23,-27.89,-30.27,0,*76
1496995529.44,9889,18.56,74190.0,18.19,-28.43,-30.89,0,*73
1496995530.68,9890,18.63,74188.0,18.17,-27.19,-29.51,0,*78
1496995531.9,9891,18.63,74188.3,18.13,-26.87,-29.29,0,*74
1496995533.16,9892,18.63,74188.0,18.11,-28.37,-30.77,0,*73
1496995534.42,9893,18.63,74190.8,18.09,-27.61,-30.39,0,*7D
1496995535.64,9894,18.63,74186.8,18.05,-30.01,-32.57,0,*7C
1496995536.92,9895,18.63,74188.8,17.97,-30.73,-33.27,0,*7A
1496995538.19,9896,18.63,74190.5,17.97,-29.01,-31.61,0,*74
1496995539.41,9897,18.63,74190.0,17.89,-32.13,-34.77,0,*71
1496995540.64,9898,18.63,74192.0,17.83,-32.07,-34.77,0,*71
1496995541.87,9899,18.63,74190.0,17.77,-31.79,-34.47,0,*72
1496995543.06,9900,18.63,74188.3,17.69,-31.05,-33.67,0,*72
1496995544.28,9901,18.63,74190.0,17.65,-30.05,-32.39,0,*74
1496995545.49,9902,18.63,74188.8,17.61,-29.57,-32.01,0,*77
1496995546.72,9903,18.63,74188.3,17.57,-29.45,-32.07,0,*76
1496995547.95,9904,18.63,74186.5,17.53,-29.95,-32.45,0,*7E
1496995549.2,9905,18.63,74188.8,17.51,-29.95,-32.45,0,*7D
1496995550.43,9906,18.63,74190.5,17.45,-28.53,-30.95,0,*7F
1496995551.7,9907,18.63,74188.3,17.43,-29.01,-31.39,0,*79
1496995552.9,9908,18.63,74190.8,17.41,-29.95,-32.35,0,*76
1496995554.13,9909,18.63,74190.8,17.37,-29.83,-32.29,0,*7C
1496995555.38,9910,18.63,74188.8,17.35,-30.33,-32.85,0,*73
1496995556.63,9911,18.63,74192.8,17.31,-30.01,-32.39,0,*70
1496995557.89,9912,18.63,74188.8,17.27,-29.01,-31.45,0,*74
1496995559.1,9913,18.63,74188.8,17.21,-28.37,-30.83,0,*7C
1496995560.3,9914,18.63,74192.3,17.21,-28.15,-30.67,0,*71
1496995561.52,9915,18.63,74190.0,17.17,-29.45,-31.85,0,*7C
1496995562.72,9916,18.56,74188.8,17.13,-30.11,-32.69,0,*73
1496995563.98,9917,18.63,74188.0,17.11,-30.11,-32.75,0,*7D
1496995565.26,9918,18.63,74190.5,17.05,-29.39,-32.07,0,*70
1496995566.47,9919,18.63,74190.5,16.99,-29.83,-32.39,0,*79
1496995567.69,9920,18.63,74190.3,16.99,-29.23,-31.73,0,*74
1496995568.91,9921,18.63,74190.5,16.95,-27.83,-30.23,0,*79
1496995570.18,9922,18.63,74188.8,16.93,-26.17,-28.43,0,*7F
1496995571.4,9923,18.63,74188.8,16.91,-26.49,-28.75,0,*72
1496995572.61,9924,18.63,74188.0,16.91,-27.71,-29.95,0,*70
1496995573.86,9925,18.63,74190.3,16.89,-28.63,-31.17,0,*77
1496995575.11,9926,18.63,74190.5,16.87,-28.79,-31.39,0,*7D
1496995576.37,9927,18.63,74188.8,16.85,-28.21,-30.45,0,*79
1496995577.62,9928,18.63,74190.5,16.81,-27.67,-30.05,0,*7B
1496995578.87,9929,18.63,74194.5,16.81,-28.37,-30.95,0,*79
1496995580.12,9930,18.63,74188.0,16.77,-28.91,-31.33,0,*79
1496995581.34,9931,18.63,74188.8,16.73,-29.17,-31.67,0,*72
1496995582.59,9932,18.63,74190.3,16.69,-28.21,-30.51,0,*7A
1496995583.79,9933,18.63,74190.5,16.69,-28.69,-31.17,0,*74
1496995585.03,9934,18.63,74190.3,16.65,-28.53,-30.89,0,*70
1496995586.3,9935,18.63,74188.3,16.63,-26.71,-29.01,0,*71
1496995587.54,9936,18.63,74188.3,16.63,-26.49,-28.75,0,*7B
1496995588.75,9937,18.63,74190.3,16.61,-27.13,-29.39,0,*7F
1496995589.98,9938,18.63,74188.0,16.61,-27.23,-29.57,0,*7B
1496995591.25,9939,18.63,74190.5,16.55,-27.35,-29.73,0,*7C
1496995592.48,9940,18.63,74194.3,16.59,-27.55,-29.83,0,*77
1496995593.7,9941,18.63,74190.8,16.53,-29.73,-32.35,0,*71
1496995594.95,9942,18.63,74190.3,16.47,-29.23,-31.73,0,*73
1496995596.15,9943,18.63,74188.8,16.45,-29.61,-32.01,0,*70
1496995597.41,9944,18.63,74188.0,16.41,-29.07,-31.61,0,*76
1496995598.64,9945,18.63,74188.3,16.39,-28.05,-30.27,0,*78
1496995599.86,9946,18.63,74188.8,16.37,-27.55,-29.95,0,*7E
1496995601.15,9947,18.63,74188.8,16.33,-28.63,-31.23,0,*75
1496995602.41,9948,18.63,74192.8,16.29,-27.71,-30.17,0,*7B
1496995603.64,9949,18.63,74190.8,16.29,-27.67,-29.95,0,*7F
1496995604.89,9950,18.63,74186.5,16.29,-28.53,-30.95,0,*77
1496995606.16,9951,18.63,74186.3,16.21,-29.89,-32.51,0,*72
1496995607.39,9952,18.63,74188.5,16.19,-30.11,-32.75,0,*75
1496995608.6,9953,18.63,74190.0,16.15,-29.67,-32.23,0,*72
1496995609.85,9954,18.63,74190.3,16.11,-28.05,-30.55,0,*77
1496995611.06,9955,18.63,74190.3,16.07,-27.13,-29.35,0,*77
1496995612.3,9956,18.63,74188.8,16.07,-26.71,-28.91,0,*7E
1496995613.53,9957,18.63,74190.3,16.05,-26.07,-28.31,0,*76
1496995614.77,9958,18.63,74190.8,16.05,-26.77,-28.97,0,*72
1496995616.01,9959,18.63,74190.8,16.05,-26.07,-28.25,0,*7D
1496995617.25,9960,18.63,74188.5,16.05,-27.03,-29.29,0,*7F
1496995618.46,9961,18.63,74186.3,16.05,-26.23,-28.31,0,*75
1496995619.68,9962,18.63,74184.3,16.03,-25.03,-27.13,0,*7E
1496995620.92,9963,18.63,74184.5,16.03,-26.29,-28.47,0,*7A
1496995622.16,9964,18.63,74190.3,16.03,-25.29,-27.35,0,*74
1496995623.4,9965,18.63,74188.8,16.01,-23.79,-25.75,0,*72
1496995624.64,9966,18.63,74190.5,16.03,-22.21,-24.15,0,*78
1496995625.86,9967,18.63,74188.0,16.07,-21.87,-23.79,0,*7F
1496995627.08,9968,18.63,74190.3,16.11,-22.27,-24.21,0,*74
1496995628.31,9969,18.63,74190.5,16.13,-22.41,-24.47,0,*77
1496995629.59,9970,18.63,74188.5,16.13,-23.99,-26.13,0,*78
1496995630.84,9971,18.63,74188.5,16.13,-24.97,-27.19,0,*7B
1496995632.09,9972,18.63,74194.3,16.13,-25.03,-27.51,0,*78
1496995633.28,9973,18.63,74192.8,16.11,-26.61,-29.07,0,*71
1496995634.49,9974,18.63,74190.3,16.11,-27.13,-29.39,0,*7F
1496995635.74,9975,18.63,74194.5,16.05,-25.87,-28.05,0,*7A
1496995636.93,9976,18.63,74188.0,16.03,-25.49,-27.67,0,*76
1496995638.12,9977,18.63,74186.5,16.03,-22.67,-24.35,0,*78
1496995639.33,9978,18.63,74190.5,16.03,-21.43,-23.33,0,*73
1496995640.57,9979,18.63,74188.5,16.07,-22.31,-24.11,0,*77
1496995641.82,9980,18.63,74188.8,16.13,-21.97,-23.75,0,*7E
1496995643.04,9981,18.63,74190.8,16.11,-21.83,-23.75,0,*78
1496995644.3,9982,18.63,74190.5,16.15,-22.17,-23.85,0,*7E
1496995645.55,9983,18.63,74190.3,16.17,-21.73,-23.49,0,*7C
1496995646.81,9984,18.63,74190.5,16.17,-20.99,-22.67,0,*73
1496995648.06,9985,18.63,74188.8,16.21,-20.99,-22.63,0,*73
1496995649.31,9986,18.63,74186.5,16.21,-21.43,-23.19,0,*7A
1496995650.54,9987,18.63,74192.0,16.23,-21.23,-22.97,0,*78
1496995651.75,9988,18.63,74192.0,16.27,-20.89,-22.67,0,*7D
1496995652.96,9989,18.63,74190.3,16.31,-20.39,-22.03,0,*72
1496995654.16,9990,18.63,74188.8,16.31,-21.13,-22.87,0,*7F
1496995655.37,9991,18.63,74190.8,16.31,-20.43,-22.11,0,*75
1496995656.58,9992,18.63,74188.8,16.37,-20.29,-22.03,0,*7F
1496995657.81,9993,18.63,74190.3,16.39,-20.93,-22.77,0,*72
1496995659.07,9994,18.63,74192.5,16.41,-21.39,-23.23,0,*7B
1496995660.32,9995,18.63,74188.8,16.41,-20.69,-22.47,0,*7D
1496995661.53,9996,18.63,74190.5,16.43,-21.93,-23.75,0,*78
1496995662.76,9997,18.63,74192.3,16.43,-23.09,-25.03,0,*7F
1496995663.99,9998,18.63,74190.8,16.43,-21.77,-23.53,0,*78
1496995665.19,9999,18.63,74188.5,16.43,-21.13,-22.87,0,*73
1496995666.42,10000,18.56,74186.3,16.45,-19.85,-21.73,0,*48
1496995667.7,10001,18.63,74192.5,16.47,-19.85,-21.53,0,*49
1496995668.93,10002,18.63,74192.8,16.47,-20.59,-22.37,0,*40
1496995670.13,10003,18.63,74194.0,16.49,-20.05,-21.77,0,*41
1496995671.37,10004,18.63,74192.5,16.53,-19.99,-21.87,0,*4D
1496995672.59,10005,18.63,74188.0,16.53,-21.63,-23.65,0,*4C
1496995673.8,10006,18.63,74192.0,16.53,-21.13,-22.97,0,*44
1496995675.02,10007,18.63,74194.5,16.53,-20.35,-22.07,0,*49
1496995676.24,10008,18.63,74192.0,16.53,-19.85,-21.73,0,*47
1496995677.48,10009,18.63,74190.5,16.55,-22.07,-24.15,0,*47
1496995678.71,10010,18.63,74192.5,16.55,-22.41,-24.31,0,*4B
1496995679.96,10011,18.63,74192.3,16.55,-22.07,-23.85,0,*40
1496995681.22,10012,18.63,74192.5,16.59,-21.83,-23.75,0,*4F
1496995682.47,10013,18.63,74192.8,16.55,-22.67,-24.67,0,*4F
1496995683.75,10014,18.63,74194.8,16.55,-23.65,-25.81,0,*42
1496995684.97,10015,18.63,74194.3,16.53,-24.11,-26.23,0,*4A
1496995686.23,10016,18.63,74188.0,16.51,-24.97,-27.19,0,*4D
1496995687.49,10017,18.63,74190.3,16.47,-24.57,-26.71,0,*48
1496995688.72,10018,18.63,74190.8,16.47,-23.89,-25.87,0,*49
1496995689.95,10019,18.63,74190.5,16.43,-25.19,-27.35,0,*48
1496995691.21,10020,18.63,74192.0,16.41,-24.57,-26.71,0,*4A
1496995692.45,10021,18.63,74188.3,16.39,-25.55,-27.89,0,*41
1496995693.71,10022,18.63,74188.0,16.33,-27.07,-29.35,0,*44
1496995694.95,10023,18.63,74192.0,16.29,-25.61,-27.89,0,*45
1496995696.19,10024,18.63,74192.0,16.27,-24.57,-26.71,0,*4E
1496995697.39,10025,18.63,74190.5,16.23,-24.93,-27.07,0,*43
1496995698.62,10026,18.63,74190.3,16.23,-25.39,-27.61,0,*41
1496995699.85,10027,18.63,74188.3,16.21,-25.19,-27.51,0,*43
1496995701.08,10028,18.63,74190.8,16.19,-26.71,-28.97,0,*4F
1496995702.33,10029,18.63,74190.5,16.17,-26.61,-28.79,0,*41